Regional Weather Roundup
Issued by NWS

Current Version | Previous Version | Text Only | Print | Product List | Glossary On
Versions: 1 2 3 4 5 6 7 8 9 10 11 12 13 14 15 16 17 18 19 20 21 22 23 24 25 26 27 28 29 30 31 32 33 34 35 36 37 38 39 40 41 42 43 44 45 46 47 48 49 50
000
ASUS43 KFSD 021110
RWRSD

WEATHER ROUNDUP FOR SOUTH DAKOTA
NATIONAL WEATHER SERVICE SIOUX FALLS SD
600 AM CDT THU OCT 02 2014

NOTE: "FAIR" INDICATES FEW OR NO CLOUDS BELOW 12,000 FEET WITH NO
SIGNIFICANT WEATHER AND/OR OBSTRUCTIONS TO VISIBILITY.


SDZ001>005-009-010-012>017-021200-
NORTHWEST AND NORTH CENTRAL SOUTH DAKOTA

CITY           SKY/WX    TMP DP  RH WIND       PRES   REMARKS
BUFFALO          N/A     38  33  82 W7        29.89F
FAITH            N/A     41  37  86 W8        29.94S
MOBRIDGE       CLEAR     45  42  89 NW3       29.90R
$$

SDZ012>016-024>037-041>051-057-063-072>074-021200-
SOUTHWEST AND SOUTH CENTRAL SOUTH DAKOTA

CITY           SKY/WX    TMP DP  RH WIND       PRES   REMARKS
RAPID CTY ARPT CLEAR     39  35  86 W7        30.00R
PIERRE         MOCLDY    49  45  86 W9        29.92S
CUSTER         CLEAR     33  30  88 W6        30.03S WCI  28
ELLSWORTH AFB  CLEAR     40  36  86 W8        29.99R
PHILIP         CLEAR     44  41  89 W10       29.97R
PINE RIDGE     CLEAR     39  38  96 SW7       30.03R
WINNER         PTSUNNY   52  49  89 W7        29.94F FOG
$$

SDZ004>011-016>023-039-040-021200-
NORTHEAST SOUTH DAKOTA

CITY           SKY/WX    TMP DP  RH WIND       PRES   REMARKS
ABERDEEN       CLOUDY    50  47  89 W5        29.90R
WATERTOWN      CLOUDY    47  46  97 N3        29.87S
SISSETON         N/A     46  46 100 NW3       29.85S
$$

SDZ017-020-022-023-036>040-048>070-021200-
SOUTHEAST SOUTH DAKOTA

CITY           SKY/WX    TMP DP  RH WIND       PRES   REMARKS
SIOUX FALLS    CLOUDY    54  50  86 NW6       29.86R
HURON          CLOUDY    50  48  93 NW6       29.89S
CHAMBERLAIN    CLOUDY    51  49  95 W7        29.93S
MITCHELL       LGT RAIN  53  51  93 CALM      29.90S
YANKTON        CLOUDY    54  50  87 W9        29.91R
$$

ABBREVIATIONS USED IN REMARKS
   TC - TEMPERATURE IN CELSIUS
  WCI - WIND CHILL INDEX
   HX - HEAT INDEX
  VSB - VISIBILITY



USA.gov is the U.S. government's official web portal to all federal, state and local government web resources and services.